Saint Petersburg, FL

4:19 PM EST on February 25, 2017 (GMT -0500)
Whitted

Weather History for KSPG - May, 2013

Change the Weather History Date:

Tuesday, May 21, 2013

  Actual Average Record
Temperature  
Mean Temperature 80 °F -  
Max Temperature 88 °F 87 °F 92 °F (1953)
Min Temperature 73 °F 72 °F 62 °F (1954)
Cooling Degree Days 15    
Growing Degree Days 30 (Base 50)    
Moisture  
Dew Point 70 °F    
Average Humidity 78    
Maximum Humidity 91    
Minimum Humidity 44    
Precipitation  
Precipitation 0.53 in - - ()
Sea Level Pressure  
Sea Level Pressure 29.98 in    
Wind  
Wind Speed 10 mph (ESE)    
Max Wind Speed 22 mph    
Max Gust Speed 31 mph    
Visibility 9 miles    
Events Fog , Rain    
Averages and records for this station are not official NWS values.
T = Trace of Precipitation, MM = Missing Value Source: NWS Daily Summary

Daily Weather History Graph

Daily Weather History Graph

Search for Another Location

Airport or City:

Trip Planner

Search our weather history database for the weather conditions in past years. The results will help you decide how hot, cold, wet, or windy it might be!

Date:

Astronomy

May. 21, 2013 Rise Set
Actual Time 6:38 AM EDT 8:16 PM EDT
Civil Twilight 6:12 AM EDT 8:42 PM EDT
Nautical Twilight 5:41 AM EDT 9:13 PM EDT
Astronomical Twilight 5:09 AM EDT 9:45 PM EDT
Moon 4:45 PM EDT (5/21) 3:45 AM EDT (5/21)
Length of Visible Light 14h 29m
Length of Day
13h 38m
Waxing Gibbous, 84% of the Moon is Illuminated
May 21
Waxing Gibbous
May 25
Full
May 31
Last Quarter
Jun 8
New
Jun 16
First Quarter

Hourly Weather History & Observations

Time (EDT) Temp. Heat Index Dew Point Humidity Pressure Visibility Wind Dir Wind Speed Gust Speed Precip Events Conditions
12:53 AM 77.0 °F - 71.1 °F 82% 29.99 in 10.0 mi ESE 5.8 mph - N/A   Clear
1:53 AM 75.0 °F - 71.1 °F 87% 30.00 in 10.0 mi SE 13.8 mph - N/A   Clear
2:07 AM 75.0 °F - 71.1 °F 87% 29.99 in 10.0 mi SE 10.4 mph - N/A   Partly Cloudy
2:53 AM 75.0 °F - 71.1 °F 87% 29.98 in 10.0 mi ESE 9.2 mph - N/A   Scattered Clouds
3:04 AM 73.9 °F - 71.1 °F 91% 29.98 in 10.0 mi ESE 10.4 mph - N/A   Mostly Cloudy
3:39 AM 73.9 °F - 70.0 °F 87% 29.98 in 10.0 mi SE 6.9 mph - N/A   Scattered Clouds
3:53 AM 73.9 °F - 70.0 °F 87% 29.97 in 10.0 mi SE 8.1 mph - N/A   Clear
4:53 AM 73.9 °F - 70.0 °F 87% 29.97 in 10.0 mi SE 10.4 mph - N/A   Clear
5:53 AM 73.9 °F - 70.0 °F 87% 29.97 in 10.0 mi SE 10.4 mph - N/A   Clear
6:53 AM 73.9 °F - 70.0 °F 87% 29.99 in 10.0 mi SSE 6.9 mph - N/A   Partly Cloudy
7:53 AM 75.0 °F - 70.0 °F 84% 30.00 in 10.0 mi SE 8.1 mph - N/A   Partly Cloudy
8:53 AM 77.0 °F - 69.1 °F 76% 30.02 in 10.0 mi ESE 8.1 mph - N/A   Clear
9:53 AM 79.0 °F - 70.0 °F 74% 30.03 in 10.0 mi ESE 6.9 mph - N/A   Clear
10:53 AM 80.1 °F 83.2 °F 70.0 °F 71% 30.04 in 10.0 mi SE 4.6 mph - N/A   Clear
11:53 AM 81.0 °F 84.4 °F 70.0 °F 69% 30.03 in 10.0 mi SSE 4.6 mph - N/A   Clear
12:53 PM 84.0 °F 86.5 °F 66.9 °F 56% 30.00 in 10.0 mi SE 4.6 mph - N/A   Clear
1:53 PM 86.0 °F 88.8 °F 66.9 °F 53% 29.97 in 10.0 mi ESE 6.9 mph - N/A   Clear
2:53 PM 87.1 °F 87.8 °F 63.0 °F 44% 29.95 in 10.0 mi SSE 5.8 mph - N/A   Clear
3:53 PM 84.9 °F 87.6 °F 66.9 °F 55% 29.92 in 10.0 mi West 6.9 mph - N/A   Partly Cloudy
4:53 PM 86.0 °F 88.8 °F 66.9 °F 53% 29.94 in 10.0 mi ENE 10.4 mph - N/A   Mostly Cloudy
5:14 PM 79.0 °F - 69.1 °F 72% 29.95 in 10.0 mi NE 20.7 mph - N/A   Mostly Cloudy
5:29 PM 77.0 °F - 71.1 °F 82% 29.97 in 1.8 mi NNE 21.9 mph 31.1 mph 0.11 in Rain Rain
5:38 PM 75.0 °F - 72.0 °F 90% 29.98 in 0.5 mi ENE 17.3 mph 28.8 mph 0.37 in Fog , Rain Heavy Rain
5:53 PM 75.9 °F - 73.0 °F 91% 29.97 in 1.5 mi ENE 20.7 mph - 0.52 in Rain Rain
5:59 PM 75.9 °F - 73.0 °F 91% 29.97 in 3.0 mi East 20.7 mph - 0.01 in Rain Light Rain
6:53 PM 75.9 °F - - N/A% 29.94 in 10.0 mi ENE 9.2 mph - 0.01 in   Scattered Clouds
7:53 PM 77.0 °F - - N/A% 29.96 in 10.0 mi East 9.2 mph - N/A   Scattered Clouds
8:53 PM 77.0 °F - - N/A% 29.95 in 10.0 mi East 8.1 mph - N/A   Clear
9:53 PM 77.0 °F - 71.1 °F 82% 29.96 in 10.0 mi ESE 12.7 mph - N/A   Clear
10:53 PM 75.9 °F - 71.1 °F 85% 29.96 in 10.0 mi ESE 10.4 mph - N/A   Clear
11:53 PM 75.9 °F - 70.0 °F 82% 29.96 in 10.0 mi SE 11.5 mph - N/A   Clear